TimeEST,TemperatureF,Dew PointF,Humidity,Sea Level PressureIn,VisibilityMPH,Wind Direction,Wind SpeedMPH,Gust SpeedMPH,PrecipitationIn,Events,Conditions,WindDirDegrees,DateUTC
12:15 AM,12.9,10.2,89,30.06,10.0,Calm,Calm,-,N/A,,Clear,0,2012-12-25 05:15:00
12:35 AM,12.0,9.5,90,30.06,10.0,Calm,Calm,-,N/A,,Clear,0,2012-12-25 05:35:00
12:55 AM,12.0,10.0,92,30.07,10.0,Calm,Calm,-,N/A,,Clear,0,2012-12-25 05:55:00
1:15 AM,11.3,9.1,91,30.07,10.0,Calm,Calm,-,N/A,,Clear,0,2012-12-25 06:15:00
1:35 AM,12.0,10.0,92,30.07,10.0,Calm,Calm,-,N/A,,Clear,0,2012-12-25 06:35:00
1:55 AM,12.0,9.9,91,30.06,10.0,Calm,Calm,-,N/A,,Clear,0,2012-12-25 06:55:00
2:15 AM,12.2,9.7,90,30.06,10.0,Calm,Calm,-,N/A,,Clear,0,2012-12-25 07:15:00
2:35 AM,12.2,9.5,89,30.07,10.0,Calm,Calm,-,N/A,,Clear,0,2012-12-25 07:35:00
2:55 AM,12.0,9.5,90,30.06,10.0,Calm,Calm,-,N/A,,Clear,0,2012-12-25 07:55:00
3:15 AM,12.2,9.5,89,30.05,10.0,Calm,Calm,-,N/A,,Clear,0,2012-12-25 08:15:00
3:35 AM,13.1,10.2,88,30.04,10.0,North,3.5,-,N/A,,Clear,350,2012-12-25 08:35:00
3:55 AM,12.7,9.7,88,30.04,10.0,NNW,3.5,-,N/A,,Clear,340,2012-12-25 08:55:00
4:15 AM,12.4,9.3,88,30.06,10.0,Calm,Calm,-,N/A,,Clear,0,2012-12-25 09:15:00
4:35 AM,12.2,9.0,87,30.04,10.0,North,4.6,-,N/A,,Scattered Clouds,350,2012-12-25 09:35:00
4:55 AM,13.1,9.9,87,30.04,10.0,North,4.6,-,N/A,,Mostly Cloudy,350,2012-12-25 09:55:00
5:15 AM,13.1,10.0,88,30.04,10.0,NNE,4.6,-,N/A,,Mostly Cloudy,20,2012-12-25 10:15:00
5:55 AM,13.8,10.4,86,30.05,10.0,Calm,Calm,-,N/A,,Scattered Clouds,0,2012-12-25 10:55:00
6:15 AM,13.1,9.5,86,30.08,10.0,NW,4.6,-,N/A,,Mostly Cloudy,320,2012-12-25 11:15:00
6:35 AM,13.3,9.5,85,30.10,10.0,NW,3.5,-,N/A,,Overcast,320,2012-12-25 11:35:00
6:55 AM,13.5,9.3,84,30.10,10.0,NW,4.6,-,N/A,,Overcast,320,2012-12-25 11:55:00
7:15 AM,13.1,8.6,82,30.12,10.0,NNW,3.5,-,N/A,,Overcast,340,2012-12-25 12:15:00
7:35 AM,13.1,8.4,82,30.12,10.0,North,4.6,-,N/A,,Overcast,350,2012-12-25 12:35:00
7:55 AM,12.9,7.9,80,30.13,10.0,North,6.9,-,N/A,,Overcast,350,2012-12-25 12:55:00
8:15 AM,13.1,7.7,79,30.14,10.0,North,8.1,-,N/A,,Overcast,10,2012-12-25 13:15:00
8:35 AM,13.1,7.7,79,30.15,10.0,NNW,6.9,-,N/A,,Overcast,340,2012-12-25 13:35:00
8:55 AM,13.1,7.7,79,30.16,10.0,NNW,9.2,-,N/A,,Overcast,340,2012-12-25 13:55:00
9:15 AM,13.5,8.1,79,30.17,10.0,North,8.1,-,N/A,,Overcast,350,2012-12-25 14:15:00
9:35 AM,14.5,8.8,78,30.18,10.0,North,8.1,-,N/A,,Overcast,350,2012-12-25 14:35:00
9:55 AM,14.5,8.2,76,30.19,10.0,NNW,5.8,-,N/A,,Overcast,340,2012-12-25 14:55:00
10:15 AM,14.5,8.1,75,30.20,10.0,North,5.8,-,N/A,,Overcast,360,2012-12-25 15:15:00
10:35 AM,14.5,7.9,75,30.20,10.0,NNW,6.9,-,N/A,,Overcast,330,2012-12-25 15:35:00
10:55 AM,14.5,7.7,74,30.19,10.0,North,4.6,-,N/A,,Overcast,350,2012-12-25 15:55:00
11:15 AM,14.5,7.5,74,30.19,10.0,NNW,4.6,-,N/A,,Overcast,330,2012-12-25 16:15:00
11:35 AM,16.0,8.2,72,30.19,10.0,NNW,5.8,-,N/A,,Overcast,330,2012-12-25 16:35:00
11:55 AM,15.8,7.9,71,30.18,10.0,NNW,5.8,-,N/A,,Overcast,340,2012-12-25 16:55:00
12:15 PM,15.4,7.7,71,30.18,10.0,NNW,5.8,-,N/A,,Scattered Clouds,340,2012-12-25 17:15:00
12:35 PM,15.3,7.5,71,30.18,10.0,North,8.1,-,N/A,,Mostly Cloudy,360,2012-12-25 17:35:00
12:55 PM,17.1,8.2,68,30.18,10.0,North,10.4,-,N/A,,Overcast,360,2012-12-25 17:55:00
1:15 PM,17.1,7.5,66,30.19,10.0,North,8.1,-,N/A,,Mostly Cloudy,360,2012-12-25 18:15:00
1:35 PM,17.1,7.3,66,30.19,10.0,North,6.9,-,N/A,,Overcast,360,2012-12-25 18:35:00
1:55 PM,16.9,7.3,66,30.20,10.0,NNW,6.9,-,N/A,,Mostly Cloudy,340,2012-12-25 18:55:00
2:35 PM,14.5,9.5,80,30.22,1.5,NW,4.6,-,N/A,Snow,Light Snow,310,2012-12-25 19:35:00
2:55 PM,14.7,10.0,82,30.23,3.0,North,3.5,-,N/A,Snow,Light Snow,350,2012-12-25 19:55:00
3:15 PM,17.1,10.4,75,30.23,10.0,WNW,4.6,-,N/A,,Overcast,300,2012-12-25 20:15:00
3:35 PM,17.1,10.2,75,30.24,10.0,Calm,Calm,-,N/A,,Overcast,0,2012-12-25 20:35:00
3:55 PM,15.6,9.3,76,30.24,10.0,Calm,Calm,-,N/A,,Overcast,0,2012-12-25 20:55:00
4:15 PM,14.5,9.0,79,30.25,10.0,Calm,Calm,-,N/A,,Mostly Cloudy,0,2012-12-25 21:15:00
4:35 PM,13.5,8.8,82,30.27,10.0,Calm,Calm,-,N/A,,Scattered Clouds,0,2012-12-25 21:35:00
4:55 PM,12.0,8.2,85,30.27,10.0,NE,3.5,-,N/A,,Clear,50,2012-12-25 21:55:00
5:15 PM,10.4,7.0,86,30.27,10.0,ENE,3.5,-,N/A,,Clear,70,2012-12-25 22:15:00
5:55 PM,9.5,6.8,89,30.28,10.0,Calm,Calm,-,N/A,,Clear,0,2012-12-25 22:55:00
6:15 PM,9.5,7.0,90,30.29,10.0,Calm,Calm,-,N/A,,Clear,0,2012-12-25 23:15:00
6:35 PM,9.3,6.6,89,30.30,10.0,Calm,Calm,-,N/A,,Clear,0,2012-12-25 23:35:00
6:55 PM,6.8,4.3,89,30.31,10.0,Calm,Calm,-,N/A,,Clear,0,2012-12-25 23:55:00
7:15 PM,7.0,4.3,89,30.33,10.0,Calm,Calm,-,N/A,,Clear,0,2012-12-26 00:15:00
7:35 PM,7.2,4.6,89,30.33,10.0,SE,3.5,-,N/A,,Clear,130,2012-12-26 00:35:00
7:55 PM,6.8,4.1,89,30.33,10.0,Calm,Calm,-,N/A,,Clear,0,2012-12-26 00:55:00
8:15 PM,6.8,4.1,89,30.32,10.0,Calm,Calm,-,N/A,,Clear,0,2012-12-26 01:15:00
8:35 PM,6.8,3.7,87,30.32,10.0,Calm,Calm,-,N/A,,Clear,0,2012-12-26 01:35:00
8:55 PM,6.8,4.1,89,30.33,10.0,SE,3.5,-,N/A,,Clear,140,2012-12-26 01:55:00
9:15 PM,6.8,3.9,88,30.33,10.0,SSE,3.5,-,N/A,,Clear,150,2012-12-26 02:15:00
9:35 PM,5.9,2.7,87,30.34,10.0,Calm,Calm,-,N/A,,Clear,0,2012-12-26 02:35:00
9:55 PM,6.8,3.6,87,30.34,10.0,SE,3.5,-,N/A,,Clear,130,2012-12-26 02:55:00
10:15 PM,5.9,2.7,87,30.35,10.0,SSE,3.5,-,N/A,,Clear,150,2012-12-26 03:15:00
10:35 PM,6.4,3.6,88,30.35,10.0,Calm,Calm,-,N/A,,Clear,0,2012-12-26 03:35:00
11:15 PM,4.5,1.2,86,30.37,10.0,Calm,Calm,-,N/A,,Clear,0,2012-12-26 04:15:00
11:35 PM,2.5,-0.8,86,30.35,10.0,Calm,Calm,-,N/A,,Clear,0,2012-12-26 04:35:00
11:55 PM,4.3,1.0,86,30.36,10.0,SE,3.5,-,N/A,,Clear,140,2012-12-26 04:55:00